| time (UTC) | temp C | wind direction | speed KPH | gust KPH | rain 1hr cm | rain 24hr cm | rain mn cm | humidity % | barometer mb |
| 20260905191025 | 36 | 0 | 0.0 | 0.0 | 0.00 | 0.00 | 0.00 | 56 | 1010.5 |
| 20260905190523 | 36 | 0 | 0.0 | 0.0 | 0.00 | 0.00 | 0.00 | 54 | 1010.6 |
| 20260905190050 | 36 | 0 | 0.0 | 0.0 | 0.00 | 0.00 | 0.00 | 53 | 1010.7 |
| 20260905185524 | 36 | 0 | 0.0 | 0.0 | 0.00 | 0.00 | 0.00 | 53 | 1010.8 |
| 20260905185023 | 35 | 0 | 0.0 | 0.0 | 0.00 | 0.00 | 0.00 | 57 | 1010.9 |
| 20260905184557 | 36 | 0 | 0.0 | 0.0 | 0.00 | 0.00 | 0.00 | 53 | 1011.0 |
| 20260905184019 | 36 | 0 | 0.0 | 0.0 | 0.00 | 0.00 | 0.00 | 54 | 1011.1 |
| 20260905183519 | 36 | 0 | 0.0 | 0.0 | 0.00 | 0.00 | 0.00 | 53 | 1011.4 |
| 20260905183047 | 36 | 0 | 0.0 | 0.0 | 0.00 | 0.00 | 0.00 | 56 | 1011.6 |
| 20260905182523 | 36 | 0 | 0.0 | 0.0 | 0.00 | 0.00 | 0.00 | 56 | 1011.6 |
| 20260905182023 | 36 | 0 | 0.0 | 0.0 | 0.00 | 0.00 | 0.00 | 60 | 1011.7 |
| 20260905181551 | 35 | 0 | 0.0 | 0.0 | 0.00 | 0.00 | 0.00 | 56 | 1011.9 |
| 20260905181023 | 35 | 0 | 0.0 | 0.0 | 0.00 | 0.00 | 0.00 | 58 | 1011.9 |
| 20260905180524 | 35 | 0 | 0.0 | 0.0 | 0.00 | 0.00 | 0.00 | 56 | 1012.0 |
| 20260905180043 | 35 | 0 | 0.0 | 0.0 | 0.00 | 0.00 | 0.00 | 59 | 1012.0 |
| 20260905175531 | 35 | 0 | 0.0 | 0.0 | 0.00 | 0.00 | 0.00 | 56 | 1012.1 |
| 20260905175024 | 35 | 0 | 0.0 | 0.0 | 0.00 | 0.00 | 0.00 | 58 | 1012.2 |
| 20260905174546 | 35 | 0 | 0.0 | 0.0 | 0.00 | 0.00 | 0.00 | 57 | 1012.1 |
| 20260905174024 | 36 | 0 | 0.0 | 0.0 | 0.00 | 0.00 | 0.00 | 59 | 1012.3 |
| 20260905173524 | 35 | 0 | 0.0 | 0.0 | 0.00 | 0.00 | 0.00 | 59 | 1012.3 |
| 20260905173044 | 35 | 0 | 0.0 | 0.0 | 0.00 | 0.00 | 0.00 | 60 | 1012.5 |
| 20260905172524 | 35 | 0 | 0.0 | 0.0 | 0.00 | 0.00 | 0.00 | 60 | 1012.4 |
| 20260905172025 | 35 | 0 | 0.0 | 0.0 | 0.00 | 0.00 | 0.00 | 60 | 1012.5 |
| 20260905171544 | 35 | 0 | 0.0 | 0.0 | 0.00 | 0.00 | 0.00 | 58 | 1012.6 |
| 20260905171024 | 35 | 0 | 0.0 | 0.0 | 0.00 | 0.00 | 0.00 | 59 | 1012.8 |
| 20260905170524 | 35 | 0 | 0.0 | 0.0 | 0.00 | 0.00 | 0.00 | 59 | 1012.9 |
| 20260905170043 | 35 | 0 | 0.0 | 0.0 | 0.00 | 0.00 | 0.00 | 62 | 1013.0 |
| 20260905165523 | 34 | 0 | 0.0 | 0.0 | 0.00 | 0.00 | 0.00 | 61 | 1013.0 |
| 20260905165025 | 34 | 0 | 0.0 | 0.0 | 0.00 | 0.00 | 0.00 | 62 | 1013.2 |
| 20260905164544 | 34 | 0 | 0.0 | 0.0 | 0.00 | 0.00 | 0.00 | 61 | 1013.2 |
| 20260905164019 | 33 | 0 | 0.0 | 0.0 | 0.00 | 0.00 | 0.00 | 63 | 1013.3 |
| 20260905163521 | 33 | 0 | 0.0 | 0.0 | 0.00 | 0.00 | 0.00 | 63 | 1013.2 |
| 20260905163044 | 33 | 0 | 0.0 | 0.0 | 0.00 | 0.00 | 0.00 | 63 | 1013.3 |
| 20260905162524 | 33 | 0 | 0.0 | 0.0 | 0.00 | 0.00 | 0.00 | 62 | 1013.4 |
| 20260905162024 | 33 | 0 | 0.0 | 0.0 | 0.00 | 0.00 | 0.00 | 62 | 1013.4 |
| 20260905161542 | 33 | 0 | 0.0 | 0.0 | 0.00 | 0.00 | 0.00 | 64 | 1013.5 |
| 20260905161024 | 33 | 0 | 0.0 | 0.0 | 0.00 | 0.00 | 0.00 | 63 | 1013.5 |
| 20260905160523 | 33 | 0 | 0.0 | 0.0 | 0.00 | 0.00 | 0.00 | 65 | 1013.6 |
| 20260905160045 | 33 | 0 | 0.0 | 0.0 | 0.00 | 0.00 | 0.00 | 64 | 1013.7 |
| 20260905155522 | 33 | 0 | 0.0 | 0.0 | 0.00 | 0.00 | 0.00 | 65 | 1013.7 |
| 20260905155022 | 33 | 0 | 0.0 | 0.0 | 0.00 | 0.00 | 0.00 | 65 | 1013.7 |
| 20260905154544 | 33 | 0 | 0.0 | 0.0 | 0.00 | 0.00 | 0.00 | 64 | 1013.8 |
| 20260905154025 | 33 | 0 | 0.0 | 0.0 | 0.00 | 0.00 | 0.00 | 65 | 1014.0 |
| 20260905153525 | 33 | 0 | 0.0 | 0.0 | 0.00 | 0.00 | 0.00 | 66 | 1014.0 |
| 20260905153054 | 33 | 0 | 0.0 | 0.0 | 0.00 | 0.00 | 0.00 | 67 | 1014.0 |
| 20260905152525 | 33 | 0 | 0.0 | 0.0 | 0.00 | 0.00 | 0.00 | 66 | 1014.1 |
| 20260905152024 | 33 | 0 | 0.0 | 0.0 | 0.00 | 0.00 | 0.00 | 67 | 1014.1 |
| 20260905151547 | 33 | 0 | 0.0 | 0.0 | 0.00 | 0.00 | 0.00 | 67 | 1014.1 |
| 20260905151019 | 32 | 0 | 0.0 | 0.0 | 0.00 | 0.00 | 0.00 | 69 | 1014.2 |
| 20260905150519 | 32 | 0 | 0.0 | 0.0 | 0.00 | 0.00 | 0.00 | 67 | 1014.3 |
| 20260905150046 | 32 | 0 | 0.0 | 0.0 | 0.00 | 0.00 | 0.00 | 68 | 1014.4 |
| 20260905145522 | 32 | 0 | 0.0 | 0.0 | 0.00 | 0.00 | 0.00 | 69 | 1014.4 |
| 20260905145022 | 32 | 0 | 0.0 | 0.0 | 0.00 | 0.00 | 0.00 | 69 | 1014.4 |
| 20260905144547 | 32 | 0 | 0.0 | 0.0 | 0.00 | 0.00 | 0.00 | 71 | 1014.4 |
| 20260905144022 | 32 | 0 | 0.0 | 0.0 | 0.00 | 0.00 | 0.00 | 72 | 1014.5 |
| 20260905143519 | 32 | 0 | 0.0 | 0.0 | 0.00 | 0.00 | 0.00 | 72 | 1014.7 |
| 20260905143043 | 31 | 0 | 0.0 | 0.0 | 0.00 | 0.00 | 0.00 | 72 | 1014.6 |
| 20260905142525 | 31 | 0 | 0.0 | 0.0 | 0.00 | 0.00 | 0.00 | 73 | 1014.6 |
| 20260905142024 | 31 | 0 | 0.0 | 0.0 | 0.00 | 0.00 | 0.00 | 73 | 1014.5 |
| 20260905141546 | 31 | 0 | 0.0 | 0.0 | 0.00 | 0.00 | 0.00 | 75 | 1014.7 |
| 20260905141023 | 31 | 0 | 0.0 | 0.0 | 0.00 | 0.00 | 0.00 | 75 | 1014.6 |
| 20260905140521 | 30 | 0 | 0.0 | 0.0 | 0.00 | 0.00 | 0.00 | 76 | 1014.6 |
| 20260905140046 | 30 | 0 | 0.0 | 0.0 | 0.00 | 0.00 | 0.00 | 78 | 1014.5 |
| 20260905135521 | 30 | 0 | 0.0 | 0.0 | 0.00 | 0.00 | 0.00 | 79 | 1014.6 |
| 20260905135023 | 29 | 0 | 0.0 | 0.0 | 0.00 | 0.00 | 0.00 | 79 | 1014.6 |
| 20260905134543 | 29 | 0 | 0.0 | 0.0 | 0.00 | 0.00 | 0.00 | 80 | 1014.7 |
| 20260905134024 | 28 | 0 | 0.0 | 0.0 | 0.00 | 0.00 | 0.00 | 82 | 1014.7 |
| 20260905133525 | 28 | 0 | 0.0 | 0.0 | 0.00 | 0.00 | 0.00 | 83 | 1014.7 |
| 20260905133042 | 28 | 0 | 0.0 | 0.0 | 0.00 | 0.00 | 0.00 | 85 | 1014.7 |
| 20260905132524 | 28 | 0 | 0.0 | 0.0 | 0.00 | 0.00 | 0.00 | 87 | 1014.7 |
| 20260905132024 | 27 | 0 | 0.0 | 0.0 | 0.00 | 0.00 | 0.00 | 88 | 1014.7 |
| 20260905131559 | 27 | 0 | 0.0 | 0.0 | 0.00 | 0.00 | 0.00 | 91 | 1014.7 |
| 20260905131023 | 26 | 0 | 0.0 | 0.0 | 0.00 | 0.00 | 0.00 | 92 | 1014.9 |
| 20260905130522 | 26 | 0 | 0.0 | 0.0 | 0.00 | 0.00 | 0.00 | 93 | 1014.9 |
| 20260905130049 | 26 | 0 | 0.0 | 0.0 | 0.00 | 0.00 | 0.00 | 93 | 1014.9 |
| 20260905125521 | 26 | 0 | 0.0 | 0.0 | 0.00 | 0.00 | 0.00 | 94 | 1014.9 |
| 20260905125028 | 25 | 0 | 0.0 | 0.0 | 0.00 | 0.00 | 0.00 | 95 | 1015.0 |
| 20260905124544 | 25 | 0 | 0.0 | 0.0 | 0.00 | 0.00 | 0.00 | 95 | 1015.0 |
| 20260905124025 | 25 | 0 | 0.0 | 0.0 | 0.00 | 0.00 | 0.00 | 95 | 1015.0 |
| 20260905123524 | 25 | 0 | 0.0 | 0.0 | 0.00 | 0.00 | 0.00 | 95 | 1014.9 |
| 20260905123043 | 25 | 0 | 0.0 | 0.0 | 0.00 | 0.00 | 0.00 | 95 | 1014.9 |
| 20260905122525 | 24 | 0 | 0.0 | 0.0 | 0.00 | 0.00 | 0.00 | 95 | 1014.9 |
| 20260905122023 | 24 | 0 | 0.0 | 0.0 | 0.00 | 0.00 | 0.00 | 95 | 1014.7 |
| 20260905121542 | 24 | 0 | 0.0 | 0.0 | 0.00 | 0.00 | 0.00 | 95 | 1014.7 |
| 20260905121020 | 24 | 0 | 0.0 | 0.0 | 0.00 | 0.00 | 0.00 | 95 | 1014.7 |
| 20260905120527 | 24 | 0 | 0.0 | 0.0 | 0.00 | 0.00 | 0.00 | 95 | 1014.6 |
| 20260905120044 | 24 | 0 | 0.0 | 0.0 | 0.00 | 0.00 | 0.00 | 95 | 1014.6 |
| 20260905115528 | 24 | 0 | 0.0 | 0.0 | 0.00 | 0.00 | 0.00 | 94 | 1014.6 |
| 20260905115025 | 24 | 0 | 0.0 | 0.0 | 0.00 | 0.00 | 0.00 | 94 | 1014.5 |
| 20260905114544 | 24 | 0 | 0.0 | 0.0 | 0.00 | 0.00 | 0.00 | 94 | 1014.6 |
| 20260905114021 | 23 | 0 | 0.0 | 0.0 | 0.00 | 0.00 | 0.00 | 94 | 1014.5 |
| 20260905113555 | 23 | 0 | 0.0 | 0.0 | 0.00 | 0.00 | 0.00 | 94 | 1014.5 |
| 20260905113043 | 23 | 0 | 0.0 | 0.0 | 0.00 | 0.00 | 0.00 | 94 | 1014.4 |
| 20260905112525 | 23 | 0 | 0.0 | 0.0 | 0.00 | 0.00 | 0.00 | 94 | 1014.4 |
| 20260905112024 | 23 | 0 | 0.0 | 0.0 | 0.00 | 0.00 | 0.00 | 94 | 1014.3 |
| 20260905111602 | 23 | 0 | 0.0 | 0.0 | 0.00 | 0.00 | 0.00 | 93 | 1014.3 |
| 20260905111024 | 23 | 0 | 0.0 | 0.0 | 0.00 | 0.00 | 0.00 | 93 | 1014.3 |
| 20260905110524 | 23 | 0 | 0.0 | 0.0 | 0.00 | 0.00 | 0.00 | 93 | 1014.2 |
| 20260905110044 | 24 | 0 | 0.0 | 0.0 | 0.00 | 0.00 | 0.00 | 93 | 1014.1 |
| 20260905105524 | 24 | 0 | 0.0 | 0.0 | 0.00 | 0.00 | 0.00 | 93 | 1014.1 |
| 20260905105019 | 24 | 0 | 0.0 | 0.0 | 0.00 | 0.00 | 0.00 | 93 | 1014.0 |
| 20260905104545 | 24 | 0 | 0.0 | 0.0 | 0.00 | 0.00 | 0.00 | 93 | 1014.0 |
| 20260905104021 | 24 | 0 | 0.0 | 0.0 | 0.00 | 0.00 | 0.00 | 93 | 1014.0 |
| 20260905103523 | 24 | 0 | 0.0 | 0.0 | 0.00 | 0.00 | 0.00 | 93 | 1014.0 |
| 20260905103042 | 24 | 0 | 0.0 | 0.0 | 0.00 | 0.00 | 0.00 | 93 | 1013.9 |
| 20260905102525 | 24 | 0 | 0.0 | 0.0 | 0.00 | 0.00 | 0.00 | 93 | 1013.9 |
| 20260905102024 | 24 | 0 | 0.0 | 0.0 | 0.00 | 0.00 | 0.00 | 93 | 1013.9 |
| 20260905101547 | 24 | 0 | 0.0 | 0.0 | 0.00 | 0.00 | 0.00 | 93 | 1013.8 |
| 20260905101023 | 24 | 0 | 0.0 | 0.0 | 0.00 | 0.00 | 0.00 | 93 | 1013.8 |
| 20260905100529 | 24 | 0 | 0.0 | 0.0 | 0.00 | 0.00 | 0.00 | 93 | 1013.9 |
| 20260905100046 | 24 | 0 | 0.0 | 0.0 | 0.00 | 0.00 | 0.00 | 93 | 1013.9 |
| 20260905095524 | 24 | 0 | 0.0 | 0.0 | 0.00 | 0.00 | 0.00 | 93 | 1013.8 |
| 20260905095024 | 24 | 0 | 0.0 | 0.0 | 0.00 | 0.00 | 0.00 | 93 | 1013.9 |
| 20260905094542 | 24 | 0 | 0.0 | 0.0 | 0.00 | 0.00 | 0.00 | 93 | 1013.9 |
| 20260905094021 | 24 | 0 | 0.0 | 0.0 | 0.00 | 0.00 | 0.00 | 93 | 1014.0 |
| 20260905093521 | 24 | 0 | 0.0 | 0.0 | 0.00 | 0.00 | 0.00 | 93 | 1013.9 |
| 20260905093043 | 24 | 0 | 0.0 | 0.0 | 0.00 | 0.00 | 0.00 | 93 | 1013.8 |
| 20260905092522 | 24 | 0 | 0.0 | 0.0 | 0.00 | 0.00 | 0.00 | 93 | 1013.8 |
| 20260905092028 | 24 | 0 | 0.0 | 0.0 | 0.00 | 0.00 | 0.00 | 92 | 1013.7 |
| 20260905091543 | 24 | 0 | 0.0 | 0.0 | 0.00 | 0.00 | 0.00 | 92 | 1013.7 |
| 20260905091024 | 24 | 0 | 0.0 | 0.0 | 0.00 | 0.00 | 0.00 | 92 | 1013.9 |
| 20260905090526 | 25 | 0 | 0.0 | 0.0 | 0.00 | 0.00 | 0.00 | 92 | 1013.9 |
| 20260905090046 | 25 | 0 | 0.0 | 0.0 | 0.00 | 0.00 | 0.00 | 92 | 1014.0 |
| 20260905085522 | 25 | 0 | 0.0 | 0.0 | 0.00 | 0.00 | 0.00 | 92 | 1014.0 |
| 20260905085022 | 25 | 0 | 0.0 | 0.0 | 0.00 | 0.00 | 0.00 | 92 | 1014.2 |
| 20260905084542 | 25 | 0 | 0.0 | 0.0 | 0.00 | 0.00 | 0.00 | 92 | 1014.1 |
| 20260905084025 | 25 | 0 | 0.0 | 0.0 | 0.00 | 0.00 | 0.00 | 92 | 1014.2 |
| 20260905083527 | 25 | 0 | 0.0 | 0.0 | 0.00 | 0.00 | 0.00 | 92 | 1014.1 |
| 20260905083042 | 25 | 0 | 0.0 | 0.0 | 0.00 | 0.00 | 0.00 | 92 | 1014.1 |
| 20260905082524 | 25 | 0 | 0.0 | 0.0 | 0.00 | 0.00 | 0.00 | 92 | 1014.1 |
| 20260905082025 | 25 | 0 | 0.0 | 0.0 | 0.00 | 0.00 | 0.00 | 91 | 1014.1 |
| 20260905081548 | 25 | 0 | 0.0 | 0.0 | 0.00 | 0.00 | 0.00 | 91 | 1014.1 |
| 20260905081025 | 25 | 0 | 0.0 | 0.0 | 0.00 | 0.00 | 0.00 | 91 | 1014.1 |
| 20260905080523 | 25 | 0 | 0.0 | 0.0 | 0.00 | 0.00 | 0.00 | 91 | 1014.1 |
| 20260905080042 | 25 | 0 | 0.0 | 0.0 | 0.00 | 0.00 | 0.00 | 91 | 1014.0 |
| 20260905075525 | 25 | 0 | 0.0 | 0.0 | 0.00 | 0.00 | 0.00 | 91 | 1014.0 |
| 20260905075023 | 25 | 0 | 0.0 | 0.0 | 0.00 | 0.00 | 0.00 | 91 | 1014.0 |
| 20260905074551 | 25 | 0 | 0.0 | 0.0 | 0.00 | 0.00 | 0.00 | 91 | 1014.1 |
| 20260905074025 | 25 | 0 | 0.0 | 0.0 | 0.00 | 0.00 | 0.00 | 91 | 1014.1 |
| 20260905073526 | 25 | 0 | 0.0 | 0.0 | 0.00 | 0.00 | 0.00 | 91 | 1014.0 |
| 20260905073058 | 25 | 0 | 0.0 | 0.0 | 0.00 | 0.00 | 0.00 | 91 | 1014.0 |
| 20260905072524 | 25 | 0 | 0.0 | 0.0 | 0.00 | 0.00 | 0.00 | 90 | 1014.1 |
| 20260905072022 | 25 | 0 | 0.0 | 0.0 | 0.00 | 0.00 | 0.00 | 90 | 1014.0 |
| 20260905071546 | 25 | 0 | 0.0 | 0.0 | 0.00 | 0.00 | 0.00 | 90 | 1013.9 |
| 20260905071023 | 25 | 0 | 0.0 | 0.0 | 0.00 | 0.00 | 0.00 | 90 | 1014.1 |
| 20260905070523 | 25 | 0 | 0.0 | 0.0 | 0.00 | 0.00 | 0.00 | 90 | 1014.1 |
| 20260905070044 | 25 | 0 | 0.0 | 0.0 | 0.00 | 0.00 | 0.00 | 89 | 1014.0 |
| 20260905065524 | 25 | 0 | 0.0 | 0.0 | 0.00 | 0.00 | 0.00 | 89 | 1014.0 |
| 20260905065027 | 25 | 0 | 0.0 | 0.0 | 0.00 | 0.00 | 0.00 | 89 | 1014.2 |
| 20260905064542 | 25 | 0 | 0.0 | 0.0 | 0.00 | 0.00 | 0.00 | 89 | 1014.1 |
| 20260905064024 | 25 | 0 | 0.0 | 0.0 | 0.00 | 0.00 | 0.00 | 89 | 1014.2 |
| 20260905063523 | 25 | 0 | 0.0 | 0.0 | 0.00 | 0.00 | 0.00 | 89 | 1014.2 |
| 20260905063044 | 25 | 0 | 0.0 | 0.0 | 0.00 | 0.00 | 0.00 | 89 | 1014.1 |
| 20260905062525 | 25 | 0 | 0.0 | 0.0 | 0.00 | 0.00 | 0.00 | 88 | 1014.2 |
| 20260905062023 | 25 | 0 | 0.0 | 0.0 | 0.00 | 0.00 | 0.00 | 88 | 1014.2 |
| 20260905061546 | 26 | 0 | 0.0 | 0.0 | 0.00 | 0.00 | 0.00 | 88 | 1014.2 |
| 20260905061022 | 26 | 0 | 0.0 | 0.0 | 0.00 | 0.00 | 0.00 | 88 | 1014.4 |
| 20260905060521 | 26 | 0 | 0.0 | 0.0 | 0.00 | 0.00 | 0.00 | 87 | 1014.4 |
| 20260905060043 | 26 | 0 | 0.0 | 0.0 | 0.00 | 0.00 | 0.00 | 87 | 1014.5 |
| 20260905055522 | 26 | 0 | 0.0 | 0.0 | 0.00 | 0.00 | 0.00 | 87 | 1014.6 |
| 20260905055023 | 26 | 0 | 0.0 | 0.0 | 0.00 | 0.00 | 0.00 | 87 | 1014.6 |
| 20260905054546 | 26 | 0 | 0.0 | 0.0 | 0.00 | 0.00 | 0.00 | 87 | 1014.6 |
| 20260905054023 | 26 | 0 | 0.0 | 0.0 | 0.00 | 0.00 | 0.00 | 87 | 1014.9 |
| 20260905053524 | 26 | 0 | 0.0 | 0.0 | 0.00 | 0.00 | 0.00 | 87 | 1014.9 |
| 20260905053110 | 26 | 0 | 0.0 | 0.0 | 0.00 | 0.00 | 0.00 | 87 | 1014.9 |
| 20260905052523 | 26 | 0 | 0.0 | 0.0 | 0.00 | 0.00 | 0.00 | 87 | 1014.9 |
| 20260905052024 | 26 | 0 | 0.0 | 0.0 | 0.00 | 0.00 | 0.00 | 87 | 1014.9 |
| 20260905051544 | 26 | 0 | 0.0 | 0.0 | 0.00 | 0.00 | 0.00 | 87 | 1015.0 |
| 20260905051023 | 26 | 0 | 0.0 | 0.0 | 0.00 | 0.00 | 0.00 | 87 | 1015.1 |
| 20260905050521 | 26 | 0 | 0.0 | 0.0 | 0.00 | 0.00 | 0.00 | 86 | 1015.1 |
| 20260905050042 | 26 | 0 | 0.0 | 0.0 | 0.00 | 0.00 | 0.00 | 86 | 1015.2 |
| 20260905045524 | 26 | 0 | 0.0 | 0.0 | 0.00 | 0.00 | 0.00 | 86 | 1015.2 |
| 20260905045024 | 26 | 0 | 0.0 | 0.0 | 0.00 | 0.00 | 0.00 | 86 | 1015.2 |
| 20260905044545 | 26 | 0 | 0.0 | 0.0 | 0.00 | 0.00 | 0.00 | 86 | 1015.3 |
| 20260905044023 | 26 | 0 | 0.0 | 0.0 | 0.00 | 0.00 | 0.00 | 85 | 1015.3 |
| 20260905043522 | 26 | 0 | 0.0 | 0.0 | 0.00 | 0.00 | 0.00 | 86 | 1015.3 |
| 20260905043044 | 26 | 0 | 0.0 | 0.0 | 0.00 | 0.00 | 0.00 | 85 | 1015.2 |
| 20260905042525 | 27 | 0 | 0.0 | 0.0 | 0.00 | 0.00 | 0.00 | 85 | 1015.4 |
| 20260905042024 | 27 | 0 | 0.0 | 0.0 | 0.00 | 0.00 | 0.00 | 85 | 1015.5 |
| 20260905041546 | 27 | 0 | 0.0 | 0.0 | 0.00 | 0.00 | 0.00 | 85 | 1015.5 |
| 20260905041019 | 27 | 0 | 0.0 | 0.0 | 0.00 | 0.00 | 0.00 | 85 | 1015.3 |
| 20260905040521 | 27 | 0 | 0.0 | 0.0 | 0.00 | 0.00 | 0.00 | 85 | 1015.5 |
| 20260905040044 | 27 | 0 | 0.0 | 0.0 | 0.00 | 0.00 | 0.00 | 85 | 1015.5 |
| 20260905035523 | 27 | 0 | 0.0 | 0.0 | 0.00 | 0.00 | 0.00 | 84 | 1015.4 |
| 20260905035024 | 27 | 0 | 0.0 | 0.0 | 0.00 | 0.00 | 0.00 | 85 | 1015.5 |
| 20260905034547 | 27 | 0 | 0.0 | 0.0 | 0.00 | 0.00 | 0.00 | 84 | 1015.4 |
| 20260905034023 | 27 | 0 | 0.0 | 0.0 | 0.00 | 0.00 | 0.00 | 84 | 1015.4 |
| 20260905033527 | 27 | 0 | 0.0 | 0.0 | 0.00 | 0.00 | 0.00 | 84 | 1015.5 |
| 20260905033055 | 27 | 0 | 0.0 | 0.0 | 0.00 | 0.00 | 0.00 | 84 | 1015.5 |
| 20260905032527 | 27 | 0 | 0.0 | 0.0 | 0.00 | 0.00 | 0.00 | 83 | 1015.5 |
| 20260905032025 | 27 | 0 | 0.0 | 0.0 | 0.00 | 0.00 | 0.00 | 83 | 1015.6 |
| 20260905031545 | 27 | 0 | 0.0 | 0.0 | 0.00 | 0.00 | 0.00 | 83 | 1015.6 |
| 20260905031020 | 27 | 0 | 0.0 | 0.0 | 0.00 | 0.00 | 0.00 | 83 | 1015.6 |
| 20260905030524 | 27 | 0 | 0.0 | 0.0 | 0.00 | 0.00 | 0.00 | 83 | 1015.6 |
| 20260905030047 | 27 | 0 | 0.0 | 0.0 | 0.00 | 0.00 | 0.00 | 82 | 1015.7 |
| 20260905025524 | 27 | 0 | 0.0 | 0.0 | 0.00 | 0.00 | 0.00 | 82 | 1015.7 |
| 20260905025023 | 28 | 0 | 0.0 | 0.0 | 0.00 | 0.00 | 0.00 | 82 | 1015.7 |
| 20260905024543 | 28 | 0 | 0.0 | 0.0 | 0.00 | 0.00 | 0.00 | 82 | 1015.7 |
| 20260905024021 | 28 | 0 | 0.0 | 0.0 | 0.00 | 0.00 | 0.00 | 81 | 1015.7 |
| 20260905023521 | 28 | 0 | 0.0 | 0.0 | 0.00 | 0.00 | 0.00 | 81 | 1015.7 |
| 20260905023045 | 28 | 0 | 0.0 | 0.0 | 0.00 | 0.00 | 0.00 | 80 | 1015.6 |
| 20260905022524 | 28 | 0 | 0.0 | 0.0 | 0.00 | 0.00 | 0.00 | 80 | 1015.6 |
| 20260905022025 | 28 | 0 | 0.0 | 0.0 | 0.00 | 0.00 | 0.00 | 80 | 1015.5 |
| 20260905021543 | 28 | 0 | 0.0 | 0.0 | 0.00 | 0.00 | 0.00 | 80 | 1015.5 |
| 20260905021024 | 28 | 0 | 0.0 | 0.0 | 0.00 | 0.00 | 0.00 | 79 | 1015.5 |
| 20260905020525 | 28 | 0 | 0.0 | 0.0 | 0.00 | 0.00 | 0.00 | 79 | 1015.5 |
| 20260905020043 | 28 | 0 | 0.0 | 0.0 | 0.00 | 0.00 | 0.00 | 79 | 1015.6 |
| 20260905015521 | 28 | 0 | 0.0 | 0.0 | 0.00 | 0.00 | 0.00 | 78 | 1015.5 |
| 20260905015025 | 28 | 0 | 0.0 | 0.0 | 0.00 | 0.00 | 0.00 | 78 | 1015.5 |
| 20260905014544 | 28 | 0 | 0.0 | 0.0 | 0.00 | 0.00 | 0.00 | 78 | 1015.5 |
| 20260905014021 | 28 | 0 | 0.0 | 0.0 | 0.00 | 0.00 | 0.00 | 77 | 1015.5 |
| 20260905013522 | 28 | 0 | 0.0 | 0.0 | 0.00 | 0.00 | 0.00 | 76 | 1015.4 |
| 20260905013048 | 28 | 0 | 0.0 | 0.0 | 0.00 | 0.00 | 0.00 | 76 | 1015.4 |
| 20260905012524 | 28 | 0 | 0.0 | 0.0 | 0.00 | 0.00 | 0.00 | 75 | 1015.4 |
| 20260905012023 | 28 | 0 | 0.0 | 0.0 | 0.00 | 0.00 | 0.00 | 75 | 1015.5 |
| 20260905011544 | 28 | 0 | 0.0 | 0.0 | 0.00 | 0.00 | 0.00 | 73 | 1015.3 |
| 20260905011023 | 28 | 0 | 0.0 | 0.0 | 0.00 | 0.00 | 0.00 | 72 | 1015.3 |
| 20260905010524 | 29 | 0 | 0.0 | 0.0 | 0.00 | 0.00 | 0.00 | 71 | 1015.2 |
| 20260905010043 | 29 | 0 | 0.0 | 0.0 | 0.00 | 0.00 | 0.00 | 71 | 1015.1 |
| 20260905005525 | 29 | 0 | 0.0 | 0.0 | 0.00 | 0.00 | 0.00 | 71 | 1015.1 |
| 20260905005024 | 29 | 0 | 0.0 | 0.0 | 0.00 | 0.00 | 0.00 | 70 | 1015.1 |
| 20260905004548 | 30 | 0 | 0.0 | 0.0 | 0.00 | 0.00 | 0.00 | 70 | 1014.9 |
| 20260905004023 | 30 | 0 | 0.0 | 0.0 | 0.00 | 0.00 | 0.00 | 69 | 1014.7 |
| 20260905003524 | 30 | 0 | 0.0 | 0.0 | 0.00 | 0.00 | 0.00 | 69 | 1014.7 |
| 20260905003048 | 30 | 0 | 0.0 | 0.0 | 0.00 | 0.00 | 0.00 | 68 | 1014.5 |
| 20260905002520 | 30 | 0 | 0.0 | 0.0 | 0.00 | 0.00 | 0.00 | 68 | 1014.6 |
| 20260905002024 | 30 | 0 | 0.0 | 0.0 | 0.00 | 0.00 | 0.00 | 68 | 1014.6 |
| 20260905001545 | 31 | 0 | 0.0 | 0.0 | 0.00 | 0.00 | 0.00 | 67 | 1014.6 |
| 20260905001023 | 31 | 0 | 0.0 | 0.0 | 0.00 | 0.00 | 0.00 | 67 | 1014.6 |
| 20260905000523 | 31 | 0 | 0.0 | 0.0 | 0.00 | 0.00 | 0.00 | 66 | 1014.6 |
| 20260905000043 | 31 | 0 | 0.0 | 0.0 | 0.00 | 0.00 | 0.00 | 66 | 1014.5 |
| 20260904235523 | 31 | 0 | 0.0 | 0.0 | 0.00 | 0.00 | 0.00 | 65 | 1014.4 |
| 20260904235024 | 31 | 0 | 0.0 | 0.0 | 0.00 | 0.00 | 0.00 | 64 | 1014.4 |
| 20260904234541 | 32 | 0 | 0.0 | 0.0 | 0.00 | 0.00 | 0.00 | 63 | 1014.4 |
| 20260904234023 | 32 | 0 | 0.0 | 0.0 | 0.00 | 0.00 | 0.00 | 63 | 1014.3 |
| 20260904233520 | 32 | 0 | 0.0 | 0.0 | 0.00 | 0.00 | 0.00 | 62 | 1014.2 |
| 20260904233052 | 32 | 0 | 0.0 | 0.0 | 0.00 | 0.00 | 0.00 | 62 | 1014.3 |
| 20260904232526 | 32 | 0 | 0.0 | 0.0 | 0.00 | 0.00 | 0.00 | 62 | 1014.3 |
| 20260904232022 | 33 | 0 | 0.0 | 0.0 | 0.00 | 0.00 | 0.00 | 61 | 1014.3 |
| 20260904231546 | 33 | 0 | 0.0 | 0.0 | 0.00 | 0.00 | 0.00 | 61 | 1014.4 |
| 20260904231023 | 33 | 0 | 0.0 | 0.0 | 0.00 | 0.00 | 0.00 | 59 | 1014.3 |
| 20260904230522 | 33 | 0 | 0.0 | 0.0 | 0.00 | 0.00 | 0.00 | 59 | 1014.3 |
| 20260904230043 | 33 | 0 | 0.0 | 0.0 | 0.00 | 0.00 | 0.00 | 58 | 1014.4 |
| 20260904225523 | 34 | 0 | 0.0 | 0.0 | 0.00 | 0.00 | 0.00 | 58 | 1014.4 |
| 20260904225025 | 34 | 0 | 0.0 | 0.0 | 0.00 | 0.00 | 0.00 | 57 | 1014.3 |
| 20260904224559 | 34 | 0 | 0.0 | 0.0 | 0.00 | 0.00 | 0.00 | 57 | 1014.2 |
| 20260904224024 | 35 | 0 | 0.0 | 0.0 | 0.00 | 0.00 | 0.00 | 57 | 1014.3 |
| 20260904223525 | 35 | 0 | 0.0 | 0.0 | 0.00 | 0.00 | 0.00 | 57 | 1014.2 |
| 20260904223049 | 35 | 0 | 0.0 | 0.0 | 0.00 | 0.00 | 0.00 | 56 | 1014.2 |
| 20260904222525 | 35 | 0 | 0.0 | 0.0 | 0.00 | 0.00 | 0.00 | 55 | 1014.2 |
| 20260904222024 | 35 | 0 | 0.0 | 0.0 | 0.00 | 0.00 | 0.00 | 54 | 1014.2 |
| 20260904221548 | 35 | 0 | 0.0 | 0.0 | 0.00 | 0.00 | 0.00 | 55 | 1014.1 |
| 20260904221021 | 35 | 0 | 0.0 | 0.0 | 0.00 | 0.00 | 0.00 | 54 | 1014.1 |
| 20260904220528 | 36 | 0 | 0.0 | 0.0 | 0.00 | 0.00 | 0.00 | 53 | 1014.1 |
| 20260904220045 | 36 | 0 | 0.0 | 0.0 | 0.00 | 0.00 | 0.00 | 53 | 1014.1 |
| 20260904215521 | 36 | 0 | 0.0 | 0.0 | 0.00 | 0.00 | 0.00 | 54 | 1014.2 |
| 20260904215024 | 36 | 0 | 0.0 | 0.0 | 0.00 | 0.00 | 0.00 | 52 | 1014.2 |
| 20260904214546 | 36 | 0 | 0.0 | 0.0 | 0.00 | 0.00 | 0.00 | 52 | 1014.2 |
| 20260904214023 | 36 | 0 | 0.0 | 0.0 | 0.00 | 0.00 | 0.00 | 51 | 1014.3 |
| 20260904213524 | 36 | 0 | 0.0 | 0.0 | 0.00 | 0.00 | 0.00 | 51 | 1014.2 |
| 20260904213044 | 37 | 0 | 0.0 | 0.0 | 0.00 | 0.00 | 0.00 | 51 | 1014.2 |
| 20260904212524 | 37 | 0 | 0.0 | 0.0 | 0.00 | 0.00 | 0.00 | 51 | 1014.2 |
| 20260904212023 | 37 | 0 | 0.0 | 0.0 | 0.00 | 0.00 | 0.00 | 52 | 1014.2 |
| 20260904211544 | 37 | 0 | 0.0 | 0.0 | 0.00 | 0.00 | 0.00 | 52 | 1014.3 |
| 20260904211025 | 37 | 0 | 0.0 | 0.0 | 0.00 | 0.00 | 0.00 | 51 | 1014.3 |
| 20260904210526 | 37 | 0 | 0.0 | 0.0 | 0.00 | 0.00 | 0.00 | 51 | 1014.3 |
| 20260904210053 | 37 | 0 | 0.0 | 0.0 | 0.00 | 0.00 | 0.00 | 49 | 1014.3 |
| 20260904205524 | 37 | 0 | 0.0 | 0.0 | 0.00 | 0.00 | 0.00 | 51 | 1014.4 |
| 20260904205020 | 37 | 0 | 0.0 | 0.0 | 0.00 | 0.00 | 0.00 | 52 | 1014.4 |
| 20260904204544 | 37 | 0 | 0.0 | 0.0 | 0.00 | 0.00 | 0.00 | 52 | 1014.5 |
| 20260904204024 | 36 | 0 | 0.0 | 0.0 | 0.00 | 0.00 | 0.00 | 51 | 1014.5 |
| 20260904203523 | 36 | 0 | 0.0 | 0.0 | 0.00 | 0.00 | 0.00 | 53 | 1014.6 |
| 20260904203044 | 36 | 0 | 0.0 | 0.0 | 0.00 | 0.00 | 0.00 | 53 | 1014.6 |
| 20260904202524 | 36 | 0 | 0.0 | 0.0 | 0.00 | 0.00 | 0.00 | 53 | 1014.7 |
| 20260904202024 | 36 | 0 | 0.0 | 0.0 | 0.00 | 0.00 | 0.00 | 55 | 1014.9 |
| 20260904201551 | 35 | 0 | 0.0 | 0.0 | 0.00 | 0.00 | 0.00 | 55 | 1015.0 |
| 20260904201020 | 35 | 0 | 0.0 | 0.0 | 0.00 | 0.00 | 0.00 | 55 | 1015.0 |
| 20260904200524 | 35 | 0 | 0.0 | 0.0 | 0.00 | 0.00 | 0.00 | 56 | 1015.1 |
| 20260904200121 | 34 | 0 | 0.0 | 0.0 | 0.00 | 0.00 | 0.00 | 54 | 1015.1 |
| 20260904195526 | 35 | 0 | 0.0 | 0.0 | 0.00 | 0.00 | 0.00 | 54 | 1015.2 |
| 20260904195019 | 34 | 0 | 0.0 | 0.0 | 0.00 | 0.00 | 0.00 | 56 | 1015.2 |
| 20260904194600 | 35 | 0 | 0.0 | 0.0 | 0.00 | 0.00 | 0.00 | 55 | 1015.4 |
| 20260904194023 | 35 | 0 | 0.0 | 0.0 | 0.00 | 0.00 | 0.00 | 54 | 1015.5 |
| 20260904193522 | 35 | 0 | 0.0 | 0.0 | 0.00 | 0.00 | 0.00 | 54 | 1015.5 |
| 20260904193043 | 35 | 0 | 0.0 | 0.0 | 0.00 | 0.00 | 0.00 | 55 | 1015.5 |
| 20260904192522 | 35 | 0 | 0.0 | 0.0 | 0.00 | 0.00 | 0.00 | 57 | 1015.5 |
| 20260904192027 | 34 | 0 | 0.0 | 0.0 | 0.00 | 0.00 | 0.00 | 54 | 1015.5 |
| 20260904191547 | 34 | 0 | 0.0 | 0.0 | 0.00 | 0.00 | 0.00 | 56 | 1015.6 |